Tracking 31027 objects as of 19-Jul-2025
HD Live streaming from Space Station
objects crossing your sky now

STARLINK-31382

Track STARLINK-31382 now!
10-day predictions
STARLINK-31382 is classified as:


NORAD ID: 59184
Int'l Code: 2024-045G
Perigee: 489.3 km
Apogee: 491.0 km
Inclination: 43.0 °
Period: 94.3 minutes
Semi major axis: 6861 km
RCS: Unknown
Launch date: March 10, 2024
Source: United States (US)
Launch site: AIR FORCE EASTERN TEST RANGE (AFETR)
Your satellite tracking list
Your tracking list is empty




NASA's NSSDC Master Catalog

Two Line Element Set (TLE):
1 59184U 24045G   25199.72479678  .00002503  00000-0  10044-3 0  9990
2 59184  43.0007 333.4988 0001254 284.3246  75.7466 15.27585775 77384
Source of the keplerian elements: AFSPC